Wind_Speed
8 7 7 7 7 7 8 7 7 7 8 8 8 8 8 7 7 8 8 7 8 9 9 9 10 9 10 10 11 11 11 11 12 12 12 12 13 13 13 14 15 15 16
8 8 8 8 9 9 9 9 8 8 9 9 9 9 9 9 9 9 9 8 9 9 10 10 10 10 10 11 11 11 10 11 12 13 13 13 13 13 14 15 15 16 16
9 9 9 9 9 9 9 9 9 9 9 9 9 9 9 9 9 9 9 9 10 10 10 11 11 11 11 12 12 11 12 12 13 13 13 13 13 13 14 14 15 16 16
10 11 11 10 10 10 10 10 10 9 9 9 8 8 8 9 9 9 10 10 10 10 11 12 12 12 12 12 13 13 13 13 13 13 13 14 14 14 14 15 15 16 16
12 12 12 11 11 11 11 10 10 10 10 9 9 9 9 9 10 10 10 10 11 11 12 12 12 12 13 13 13 14 14 14 14 14 14 15 14 15 15 15 16 16 17
13 13 13 13 13 12 12 12 11 11 10 10 10 10 10 10 11 11 11 12 12 12 12 12 12 13 13 13 13 14 14 14 15 15 15 16 16 16 16 16 17 17 18
14 14 14 14 14 13 13 13 12 11 11 11 11 11 11 11 12 11 11 12 12 12 12 13 14 14 14 14 14 14 14 14 15 15 16 16 16 16 17 17 18 18 18
15 15 15 14 14 14 14 13 13 12 12 12 12 12 12 12 11 12 12 12 13 13 13 14 14 14 14 14 14 14 14 14 15 16 16 17 17 17 17 18 18 18 17
15 16 16 15 14 14 14 14 14 14 14 14 13 13 13 13 12 12 13 13 14 14 15 15 14 14 14 14 14 14 14 15 15 15 16 17 17 17 17 18 18 18 17
17 17 17 16 16 15 15 15 15 15 15 15 15 14 14 14 13 13 14 14 14 15 15 15 15 15 15 15 15 15 15 15 16 16 16 16 17 17 17 17 18 18 18
17 17 17 18 18 17 17 17 16 16 16 15 15 15 15 15 15 15 15 15 15 15 15 16 16 16 16 16 16 17 17 17 17 17 17 17 17 17 18 18 18 18 18
18 18 18 19 18 18 18 17 17 17 17 17 17 17 17 17 17 17 17 17 17 17 17 17 17 18 18 18 18 18 18 18 18 18 18 18 18 18 18 19 19 19 18
19 18 18 19 19 19 19 18 18 19 19 18 18 18 18 18 18 18 18 18 19 19 19 19 19 19 19 20 19 19 19 19 19 19 19 19 19 19 19 20 20 20 19
20 19 19 20 20 20 20 19 19 20 20 19 19 19 19 19 19 19 20 20 20 20 20 20 20 20 21 21 20 20 20 21 20 20 20 20 20 20 20 20 21 21 21
19 20 20 20 20 20 20 20 20 21 21 20 20 20 20 20 20 20 20 20 20 20 20 21 21 22 21 21 21 21 21 21 21 21 21 21 21 21 21 20 21 21 21
21 21 21 21 21 20 20 20 21 21 21 20 21 20 20 20 20 20 20 21 21 21 21 21 22 22 22 22 22 21 21 21 21 21 21 22 22 21 21 20 20 21 21
22 23 23 22 22 22 21 21 21 22 22 22 21 21 21 21 21 21 21 21 21 22 22 22 22 22 22 22 22 21 21 21 21 21 21 21 22 22 22 22 22 22 22
23 23 23 23 23 23 22 22 22 22 22 23 23 23 23 22 22 22 22 23 22 22 22 22 22 22 22 22 22 22 22 22 22 21 21 21 22 23 23 23 23 23 23
24 24 24 24 24 24 24 24 24 24 24 24 24 24 24 24 24 23 23 24 23 23 23 22 23 22 22 22 23 23 23 23 22 22 22 22 22 23 24 24 24 23 23
26 25 25 25 25 25 25 25 25 25 25 24 24 25 24 24 24 24 25 25 24 24 23 23 23 23 23 23 23 24 24 24 24 23 24 24 24 24 24 25 25 24 24
26 26 26 26 25 25 25 25 25 25 25 25 25 25 25 26 26 26 26 25 25 25 24 24 24 23 23 24 24 25 25 25 25 25 25 25 25 25 25 26 26 26 26
27 27 27 27 27 27 27 26 26 26 26 27 27 27 27 26 25 26 26 26 26 26 25 26 25 25 25 25 26 26 26 26 26 25 25 26 26 26 26 26 27 27 26
29 29 28 28 28 29 29 28 28 27 27 28 28 28 28 27 27 27 27 27 27 27 27 27 27 26 27 27 28 28 28 27 27 27 27 27 27 27 27 27 27 27 27
30 31 31 30 30 30 30 30 30 30 29 29 29 30 29 29 29 28 28 28 29 29 29 29 29 29 29 29 29 28 28 28 28 28 29 29 28 28 28 28 28 28 28
32 32 32 32 32 32 32 31 31 31 31 31 31 31 32 31 31 30 30 31 31 31 31 30 30 30 30 30 29 29 29 29 29 29 29 29 29 29 29 29 29 29 30
33 33 33 33 33 33 33 33 33 34 34 34 33 33 33 33 33 33 32 31 32 32 32 32 32 31 31 30 30 30 30 29 29 29 29 29 29 29 29 29 29 30 30
Wind_Direction
299 301 303 302 300 299 299 300 298 298 298 295 293 289 287 283 278 275 272 270 272 278 281 279 278 277 277 275 273 272 270 268 267 268 270 272 271 271 271 271 273 272 272
293 296 296 296 297 299 296 296 297 295 295 293 289 287 284 281 277 276 275 273 276 280 281 281 279 277 277 276 276 272 272 274 272 271 270 271 271 273 273 275 276 276 275
288 290 291 293 296 296 294 292 293 293 293 292 287 285 284 282 278 276 273 273 276 280 280 281 281 279 279 277 274 271 270 272 275 274 273 273 273 273 276 277 277 277 277
285 286 290 291 292 292 292 292 292 293 293 293 291 288 286 281 280 278 275 274 276 279 278 280 280 279 278 276 273 269 270 272 274 275 275 276 277 276 276 278 279 279 280
282 284 285 286 286 289 289 290 291 292 290 287 288 288 288 284 281 280 279 274 276 280 279 280 277 277 279 279 275 271 270 271 272 272 274 275 277 277 276 278 278 279 279
283 283 282 282 283 285 285 285 287 288 286 285 285 286 285 285 283 282 280 277 277 280 280 279 279 279 280 280 278 275 272 271 271 271 272 274 276 278 278 278 278 279 280
281 281 281 281 282 282 283 285 287 286 284 283 283 285 284 286 286 284 282 281 280 281 280 281 282 281 280 280 279 277 275 275 274 272 272 274 277 278 278 278 279 280 280
282 282 282 282 281 281 281 284 286 285 282 281 282 284 285 286 286 284 283 283 282 283 281 281 282 282 283 282 281 280 278 277 277 274 273 274 275 276 278 280 281 281 281
280 280 280 279 279 279 280 281 281 282 282 281 281 281 283 285 286 285 285 285 285 284 282 282 281 281 281 282 281 281 280 280 280 277 276 275 275 275 277 279 281 281 279
279 280 281 278 277 277 278 278 280 281 281 281 280 281 281 283 285 286 286 287 287 285 283 281 280 281 281 281 279 280 279 280 281 280 279 277 275 274 275 277 280 281 279
279 278 279 278 276 275 273 275 279 280 280 280 279 278 279 280 281 284 287 286 286 286 284 281 280 279 280 280 280 279 278 279 280 280 279 278 276 275 274 277 279 280 280
279 278 276 275 275 275 276 276 277 279 279 279 278 278 279 280 281 282 285 285 284 284 282 281 280 280 280 281 280 279 279 279 278 277 278 278 276 276 274 275 277 279 280
278 276 276 275 274 274 275 274 274 276 277 277 276 278 279 281 282 283 283 283 284 284 282 281 281 280 280 280 280 279 280 280 278 277 277 278 278 279 277 275 276 277 278
278 277 276 275 274 276 275 273 273 274 276 275 275 276 278 280 282 283 283 283 283 283 282 282 281 281 281 280 280 280 280 280 278 277 277 278 277 279 279 277 274 275 276
277 278 276 274 275 276 275 275 274 273 275 275 275 275 277 280 282 283 283 284 284 283 282 282 282 283 284 282 280 279 279 279 278 277 276 276 277 279 280 277 274 273 273
277 277 276 274 274 276 275 275 275 274 274 274 276 276 277 278 280 282 282 283 283 284 282 282 283 283 283 282 280 280 279 279 278 277 275 276 278 278 280 277 276 275 273
276 276 277 276 276 276 274 274 275 274 273 273 276 277 277 279 281 282 283 283 283 283 283 282 282 282 283 282 281 280 280 280 279 277 276 276 277 276 277 277 277 277 274
274 275 276 276 276 276 275 274 273 275 274 274 275 276 277 279 281 282 282 282 282 282 283 282 282 281 282 280 279 281 282 281 280 278 277 277 277 277 277 278 277 275 274
274 275 277 277 277 276 277 277 275 275 275 275 276 276 277 279 280 281 281 281 282 282 281 282 281 279 279 279 278 280 281 281 280 278 276 276 277 278 278 277 275 273 273
273 274 275 276 276 276 276 277 276 277 276 275 276 277 276 278 279 279 280 280 280 280 280 281 280 279 279 279 278 279 280 281 279 278 277 277 278 278 278 277 276 274 273
273 274 274 274 275 276 276 276 276 276 275 275 276 277 277 279 279 277 277 277 278 279 279 279 280 280 279 279 280 281 281 280 280 279 277 276 278 279 279 278 276 275 275
274 274 274 274 274 275 275 276 275 275 275 274 275 276 277 278 280 278 277 276 277 277 277 278 279 279 279 279 281 282 282 281 280 278 277 277 278 278 278 277 276 276 276
274 274 274 273 273 273 273 274 274 275 274 274 274 276 276 275 277 277 277 276 276 276 277 278 278 279 280 280 281 281 281 279 278 277 277 276 277 276 276 276 277 277 277
273 273 273 273 273 274 274 273 274 274 275 275 275 274 274 275 275 276 276 277 277 277 278 278 277 278 279 280 280 279 278 277 276 276 276 276 276 276 275 276 276 277 278
274 273 273 273 273 273 274 273 274 274 275 276 277 276 275 276 276 277 277 278 278 279 279 279 279 279 279 279 278 278 278 277 276 276 276 276 276 277 277 277 277 277 278
273 273 273 273 272 273 273 273 274 275 275 275 275 276 276 276 276 277 276 276 277 278 278 279 278 278 279 278 277 277 278 277 276 276 276 277 276 276 277 277 277 278 279
Height
5840 5840 5839 5839 5839 5839 5838 5838 5838 5838 5838 5838 5837 5837 5837 5837 5837 5837 5837 5838 5838 5838 5838 5838 5838 5839 5839 5839 5839 5840 5840 5840 5841 5841 5842 5842 5843 5843 5843 5843 5844 5845 5845
5838 5839 5838 5838 5838 5837 5837 5836 5836 5836 5836 5836 5836 5835 5835 5835 5835 5835 5836 5836 5836 5836 5836 5836 5836 5836 5837 5837 5837 5837 5837 5838 5838 5839 5839 5840 5840 5840 5840 5840 5841 5841 5841
5837 5837 5837 5836 5836 5836 5835 5835 5835 5835 5834 5834 5834 5833 5833 5833 5833 5834 5834 5834 5834 5834 5834 5834 5834 5834 5834 5834 5834 5835 5835 5835 5836 5836 5837 5837 5837 5837 5837 5837 5837 5838 5838
5835 5835 5835 5835 5834 5834 5834 5833 5833 5833 5832 5832 5832 5832 5831 5831 5831 5831 5831 5831 5831 5831 5831 5831 5831 5831 5831 5831 5831 5832 5832 5832 5833 5833 5833 5833 5833 5834 5834 5834 5834 5834 5834
5833 5832 5833 5832 5832 5832 5832 5831 5831 5830 5830 5830 5830 5830 5829 5829 5829 5829 5829 5829 5829 5829 5828 5828 5828 5828 5828 5828 5828 5828 5829 5829 5829 5829 5830 5830 5830 5830 5830 5830 5830 5830 5829
5830 5830 5830 5830 5829 5829 5829 5829 5828 5828 5828 5828 5828 5827 5827 5827 5826 5826 5826 5826 5826 5826 5826 5825 5825 5825 5824 5824 5824 5824 5825 5825 5825 5826 5826 5826 5826 5826 5826 5826 5826 5826 5825
5827 5827 5826 5826 5826 5826 5826 5826 5825 5825 5825 5825 5825 5825 5825 5824 5824 5823 5823 5823 5823 5823 5822 5822 5822 5821 5821 5821 5821 5820 5821 5821 5821 5821 5821 5822 5822 5821 5821 5821 5821 5821 5820
5824 5824 5823 5823 5823 5823 5823 5822 5822 5822 5822 5822 5822 5822 5821 5821 5821 5820 5820 5820 5820 5819 5819 5818 5818 5818 5817 5817 5817 5817 5817 5817 5817 5817 5817 5817 5817 5817 5817 5816 5816 5816 5816
5821 5820 5820 5820 5820 5819 5819 5819 5819 5819 5819 5819 5818 5818 5818 5818 5817 5817 5817 5816 5816 5815 5815 5814 5814 5814 5813 5813 5813 5813 5812 5812 5812 5812 5812 5812 5812 5812 5812 5811 5811 5811 5811
5817 5816 5816 5816 5816 5816 5815 5815 5815 5815 5815 5814 5814 5814 5814 5814 5814 5813 5813 5812 5812 5811 5811 5810 5809 5809 5809 5809 5809 5808 5808 5808 5807 5807 5807 5807 5807 5807 5807 5806 5806 5806 5806
5813 5812 5812 5811 5811 5811 5811 5811 5811 5811 5810 5810 5810 5810 5810 5810 5810 5809 5809 5808 5808 5807 5806 5805 5805 5805 5804 5804 5804 5803 5803 5803 5802 5802 5802 5802 5802 5801 5801 5801 5801 5800 5801
5808 5807 5807 5807 5807 5807 5806 5806 5806 5806 5806 5806 5806 5806 5806 5805 5805 5805 5804 5803 5803 5802 5801 5801 5800 5800 5799 5799 5798 5798 5798 5798 5797 5797 5797 5797 5796 5796 5796 5796 5796 5795 5795
5803 5802 5802 5802 5802 5802 5802 5802 5802 5801 5801 5801 5801 5801 5801 5800 5800 5799 5799 5798 5798 5797 5796 5795 5795 5794 5794 5793 5793 5792 5792 5792 5792 5791 5791 5791 5791 5791 5790 5790 5790 5790 5789
5798 5797 5797 5797 5797 5797 5797 5796 5796 5796 5796 5796 5795 5795 5795 5795 5794 5794 5793 5793 5792 5792 5791 5790 5789 5789 5788 5787 5787 5786 5786 5786 5785 5785 5785 5785 5785 5785 5784 5784 5784 5783 5783
5792 5792 5792 5792 5792 5791 5791 5791 5791 5791 5791 5790 5790 5790 5790 5789 5789 5789 5788 5787 5787 5786 5785 5785 5784 5783 5782 5781 5780 5780 5780 5779 5779 5779 5778 5778 5778 5778 5778 5777 5777 5777 5777
5787 5787 5787 5786 5786 5786 5786 5785 5785 5785 5785 5785 5785 5784 5784 5784 5783 5783 5782 5782 5781 5780 5780 5779 5778 5777 5776 5775 5774 5774 5773 5773 5772 5772 5772 5772 5772 5772 5771 5771 5771 5771 5771
5782 5782 5781 5780 5780 5780 5780 5779 5779 5779 5779 5779 5779 5779 5778 5778 5777 5777 5776 5776 5775 5774 5773 5773 5772 5771 5770 5769 5768 5767 5767 5766 5766 5766 5766 5766 5765 5765 5765 5765 5765 5765 5764
5776 5776 5775 5775 5774 5774 5774 5773 5773 5773 5773 5773 5773 5773 5772 5772 5771 5771 5770 5769 5769 5768 5767 5766 5766 5765 5764 5763 5762 5761 5761 5761 5760 5760 5759 5759 5759 5759 5758 5758 5758 5758 5758
5770 5770 5769 5769 5768 5768 5767 5767 5767 5766 5766 5766 5766 5766 5766 5765 5764 5764 5763 5763 5762 5761 5761 5760 5759 5758 5758 5757 5756 5755 5755 5754 5754 5753 5753 5752 5752 5752 5751 5751 5751 5751 5751
5763 5762 5762 5762 5761 5761 5760 5760 5760 5759 5759 5759 5759 5759 5758 5758 5757 5757 5756 5756 5755 5754 5754 5753 5752 5752 5751 5750 5749 5749 5748 5748 5747 5747 5746 5746 5745 5745 5744 5744 5743 5744 5744
5756 5755 5755 5755 5754 5754 5753 5753 5752 5752 5752 5752 5752 5751 5751 5750 5750 5749 5749 5748 5748 5747 5747 5746 5745 5744 5744 5743 5742 5741 5741 5740 5740 5740 5739 5738 5738 5737 5737 5736 5736 5736 5736
5748 5748 5748 5747 5747 5746 5746 5746 5745 5745 5744 5744 5744 5743 5743 5742 5742 5741 5740 5740 5740 5739 5739 5738 5737 5737 5736 5735 5735 5734 5733 5732 5732 5732 5731 5731 5730 5730 5729 5728 5728 5728 5728
5740 5740 5739 5739 5739 5738 5738 5738 5737 5737 5736 5736 5736 5735 5735 5734 5734 5733 5733 5732 5731 5731 5730 5730 5729 5729 5728 5727 5726 5725 5724 5724 5723 5723 5723 5723 5722 5722 5721 5721 5720 5720 5720
5731 5731 5730 5730 5730 5729 5729 5728 5728 5728 5728 5727 5727 5727 5726 5725 5725 5724 5724 5723 5723 5722 5722 5721 5721 5720 5719 5718 5717 5716 5716 5715 5715 5714 5714 5714 5714 5714 5713 5713 5712 5712 5711
5721 5721 5721 5720 5720 5720 5719 5719 5718 5718 5718 5718 5717 5717 5716 5716 5715 5715 5714 5714 5713 5713 5712 5712 5711 5710 5710 5709 5708 5707 5707 5706 5706 5705 5705 5705 5705 5705 5704 5704 5704 5703 5703
5711 5711 5710 5710 5710 5709 5709 5709 5708 5708 5708 5708 5707 5707 5706 5706 5706 5705 5705 5704 5704 5703 5702 5701 5701 5700 5699 5699 5698 5698 5697 5696 5696 5696 5696 5696 5696 5696 5696 5695 5695 5694 5693